Vorticity
nan nan nan nan nan nan nan nan nan nan nan nan nan nan nan nan nan nan nan nan nan nan nan nan nan nan nan nan nan nan nan nan nan nan nan nan nan nan nan nan nan nan nan nan
nan 8 4 8 12 9 7 6 10 8 10 10 5 8 10 7 12 21 9 7 5 8 11 6 8 11 9 5 3 7 7 7 4 7 7 7 9 8 9 10 7 3 4 nan
nan 3 8 12 4 8 14 10 9 11 5 7 11 7 11 16 16 15 7 10 6 8 7 6 9 8 7 6 6 6 7 7 5 6 5 7 8 8 5 4 8 8 7 nan
nan 8 6 9 11 7 6 8 8 6 11 17 8 8 8 18 16 5 11 12 8 7 6 9 9 9 7 7 5 6 8 6 6 6 7 8 6 7 5 8 8 5 6 nan
nan 8 11 11 10 11 8 5 8 8 8 8 10 14 11 12 12 13 12 9 8 8 10 10 8 9 5 8 7 6 6 5 6 6 6 6 8 8 9 13 10 6 7 nan
nan 6 8 8 7 10 10 10 7 13 15 3 7 8 12 15 17 9 10 13 9 4 11 13 7 8 12 7 7 7 7 6 6 7 7 7 6 6 8 10 11 11 13 nan
nan 9 7 8 7 6 8 11 9 10 12 7 6 12 9 12 24 16 10 10 18 10 3 9 11 8 12 9 7 7 7 6 7 7 5 7 7 9 7 7 9 9 7 nan
nan 14 18 12 13 8 6 11 5 6 4 7 10 13 19 16 15 21 11 10 14 14 7 6 11 8 10 12 7 7 6 7 7 7 8 6 7 8 9 7 8 9 8 nan
nan 8 15 19 14 6 6 11 11 5 8 15 9 7 16 12 7 13 13 12 13 12 11 5 8 11 9 11 9 9 6 7 9 5 7 9 7 8 8 8 8 7 9 nan
nan 11 6 14 11 10 11 1 7 15 15 5 11 7 10 6 10 10 7 7 9 13 12 10 5 9 11 10 10 12 12 8 7 7 6 9 9 7 8 9 9 9 12 nan
nan 10 7 10 10 6 3 10 9 14 5 7 9 3 -3 9 23 14 12 10 9 9 12 15 9 8 9 10 11 9 11 8 7 8 8 7 8 10 8 7 9 11 13 nan
nan 10 14 5 10 13 9 9 8 3 8 10 8 14 21 11 2 10 16 15 12 10 10 10 14 12 9 7 10 12 10 8 8 8 8 9 7 7 8 7 9 12 13 nan
nan 8 7 9 11 15 17 13 7 4 14 10 9 15 10 10 10 11 10 11 14 14 12 11 10 10 13 11 8 10 12 9 8 8 8 8 9 8 8 10 9 11 11 nan
nan 10 10 8 3 7 9 16 20 5 4 14 10 16 8 8 8 7 9 12 11 10 9 7 12 15 10 12 12 10 11 12 11 8 8 9 9 10 8 9 10 10 10 nan
nan 7 8 7 10 10 7 8 20 24 12 11 16 14 9 8 8 8 7 10 13 12 9 10 11 9 11 11 11 12 12 12 12 10 8 10 9 10 11 11 11 10 8 nan
nan 12 12 8 6 15 10 3 11 14 13 23 23 -2 10 11 7 7 8 9 9 10 11 11 14 17 12 8 9 11 12 13 12 13 9 10 12 10 10 11 13 12 11 nan
nan 12 12 8 8 16 6 3 17 9 10 19 16 10 10 10 9 8 6 6 7 8 8 8 13 20 18 12 9 8 9 10 12 12 14 12 12 10 8 13 14 10 9 nan
nan 14 10 8 12 11 3 8 13 8 -4 20 30 28 15 3 9 7 9 8 7 7 7 9 12 13 14 13 11 12 16 12 11 11 11 11 10 13 11 9 11 11 9 nan
nan 11 10 13 8 5 10 11 5 7 2 5 13 10 14 21 13 3 4 7 9 7 7 10 11 11 8 9 21 23 11 10 11 12 11 12 12 9 10 10 7 7 10 nan
nan 9 8 9 12 12 2 1 11 16 6 -2 4 4 6 20 12 -1 3 8 14 10 10 8 10 9 8 14 22 18 15 12 9 11 16 14 11 10 10 10 7 8 9 nan
nan 10 10 10 9 7 4 12 20 10 0 4 8 4 6 15 14 0 4 8 13 12 9 7 9 9 8 15 15 11 13 12 14 12 11 11 12 11 9 8 6 8 12 nan
nan 9 11 10 13 1 5 17 17 7 7 15 9 6 4 -3 1 30 21 9 7 10 8 8 8 7 10 13 10 11 11 10 11 12 12 10 10 9 9 9 9 12 12 nan
nan 12 9 13 13 9 12 13 10 11 11 8 6 8 12 12 16 4 1 17 11 14 13 10 8 7 9 13 13 10 8 11 12 11 10 6 8 11 12 10 9 11 12 nan
nan 13 8 10 10 8 12 16 9 9 10 4 7 16 9 -4 6 13 18 10 15 13 10 12 10 8 9 10 11 12 12 11 9 11 10 9 9 8 9 9 10 9 10 nan
nan 9 11 5 9 14 10 14 9 -3 3 12 7 7 9 13 9 11 7 9 11 13 12 10 11 11 9 9 10 10 10 12 13 10 7 9 9 11 7 7 13 16 13 nan
nan nan nan nan nan nan nan nan nan nan nan nan nan nan nan nan nan nan nan nan nan nan nan nan nan nan nan nan nan nan nan nan nan nan nan nan nan nan nan nan nan nan nan nan
CAPE
0 0 0 0 0 0 0 0 67 134 540 536 132 52 76 0 184 412 0 2 15 3 0 0 0 0 0 3 199 65 691 183 960 809 690 935 1112 1235 1209 1008 31 1 749 1920
0 0 0 0 0 0 3 0 1 18 125 415 135 112 85 247 187 427 9 0 0 7 0 0 0 0 59 58 280 332 1041 648 1183 737 684 917 934 1426 605 26 142 153 0 74
0 0 0 0 0 0 0 0 2 0 0 31 441 320 283 251 720 412 170 10 0 0 0 0 0 0 132 214 384 782 1376 1166 1108 1170 1232 1458 1865 1972 163 0 0 0 0 0
0 0 0 0 0 0 0 0 0 0 0 0 9 275 517 135 669 709 488 72 11 0 0 0 44 0 247 404 527 823 1319 1119 886 1180 1262 1147 1158 1405 391 218 110 0 0 24
0 0 0 0 0 0 0 0 0 0 0 3 0 11 21 179 452 845 474 475 70 6 12 7 6 123 399 628 801 952 1546 1100 884 877 1315 1726 1488 1248 1264 877 324 22 0 5
0 0 0 0 0 0 0 0 0 0 0 0 0 0 122 410 496 832 723 546 271 228 205 73 3 49 391 924 1096 1080 1751 1443 1223 1113 1512 1602 2175 1441 1935 1590 404 362 1255 2078
0 0 0 0 0 0 0 0 0 0 13 15 1 0 2 29 311 743 813 626 600 204 335 293 60 24 469 845 1224 1456 1498 1864 2005 1516 1621 1529 1953 2914 1762 2233 2060 2317 2011 2137
0 0 0 0 0 0 0 0 0 0 12 85 4 0 0 98 197 750 800 747 653 576 269 396 194 110 52 688 1165 1524 1754 1638 1689 2527 1865 1874 2074 2302 3292 2252 2456 2002 82 1104
0 0 0 0 0 0 0 0 0 0 0 0 25 9 165 135 210 485 662 629 761 654 443 335 338 187 172 503 678 1604 1799 1943 2230 1718 2544 2513 2384 2495 2460 2422 2315 1502 1166 1300
0 0 0 0 0 0 0 0 0 0 0 13 96 288 412 217 289 373 669 655 725 712 573 437 367 415 310 486 373 967 1733 2094 2393 2255 2089 2542 2813 2471 2554 2403 2582 2403 1779 2178
0 0 0 0 0 0 0 0 0 0 0 0 126 56 54 0 332 400 436 607 637 812 690 735 468 589 423 357 509 893 1852 2094 2146 2283 2424 2424 2831 2982 2744 2975 2836 2593 2202 2163
0 0 0 0 0 0 0 0 0 0 0 0 0 7 34 82 711 883 730 607 630 700 719 891 765 695 315 220 319 1076 1889 1921 2108 2189 2521 2630 2688 2962 3039 2506 2923 3142 2855 1980
0 0 0 0 0 0 0 0 0 0 0 0 0 305 248 390 698 1098 1110 960 896 753 720 851 978 854 929 577 436 283 1608 1779 1964 2124 2686 2653 2737 2814 2935 2935 2473 3163 3163 2122
0 0 0 0 0 0 59 5 0 0 0 0 0 405 378 473 516 542 714 1017 1071 1192 1073 1299 1325 939 1503 1064 1092 933 813 1324 1879 2108 2668 2605 2702 2754 2812 2738 2575 3085 3062 1940
0 0 0 0 0 27 58 34 31 0 0 0 72 495 389 725 807 1063 1421 1454 1100 967 1107 1040 1083 2065 1659 1999 2073 1927 1637 1577 2140 2137 2234 2595 2570 2748 2656 2640 2585 2937 2803 555
27 8 6 27 62 79 75 6 32 159 181 86 465 378 430 576 1198 1464 1611 1547 1531 1880 2066 2052 2134 1293 2875 2845 3540 3062 2786 1888 2185 2208 2288 2373 2651 2791 2864 2795 2882 2932 1808 332
0 0 0 0 4 13 130 6 85 181 514 575 444 264 719 1037 1331 1322 1467 1509 1469 1748 1921 2069 2072 1927 2098 2836 3064 3466 3412 3034 2549 2349 2613 2894 3278 3018 3047 1403 1476 1194 741 78
0 0 0 16 132 78 71 108 248 331 727 578 365 480 1085 851 654 922 1052 1456 1556 1595 1989 2114 2510 2424 2603 2322 2765 2664 3389 3505 3582 3293 3456 3410 3614 1554 881 715 745 804 488 3
17 36 43 151 232 103 119 172 141 160 464 629 780 541 272 806 783 661 809 930 1411 1456 1679 2670 3037 3143 3044 2894 3219 2747 3126 3748 3758 4014 3890 3016 1560 960 795 533 576 313 64 33
19 16 21 114 197 236 198 109 246 152 606 409 594 261 177 83 428 0 119 273 1095 1362 1602 2479 3156 3248 3200 3442 3603 3882 3816 3855 3834 3914 1991 1350 1210 1097 980 723 278 6 2 0
7 15 18 27 7 414 226 429 463 68 300 364 196 1 0 37 16 0 149 637 1182 1208 1707 2280 3125 3705 3715 4010 3663 3608 3227 3069 2591 1979 1431 907 911 748 465 494 289 206 244 73
1 20 0 31 22 143 52 525 272 464 99 329 139 77 0 0 12 211 550 257 1464 1815 1848 2660 3576 3602 3639 4040 3182 2880 3060 2642 2145 1724 1401 1100 971 958 973 900 717 548 465 477
10 33 296 189 283 55 209 95 169 142 3 36 218 15 0 0 6 592 593 650 479 1209 1681 2889 3570 3374 3282 3713 3062 2747 2742 2538 2377 2035 1323 606 627 963 920 667 542 427 270 116
0 0 0 1 307 43 0 37 16 6 5 4 27 98 86 105 82 209 344 330 559 1654 1759 2530 3684 3485 3163 2898 2790 2580 2264 2477 2335 2109 1085 1002 893 931 552 442 383 345 263 87
1 0 0 2 56 25 112 1 57 60 60 50 165 0 34 139 73 130 100 352 552 1164 1940 2528 3371 3619 3113 2691 2441 2342 2150 2441 2139 1349 1178 1061 421 767 498 118 145 342 241 56
2 18 45 193 263 237 106 144 96 311 210 134 106 0 0 10 29 9 139 618 681 747 2378 2631 3238 3672 3196 2654 2339 2358 2269 1986 1917 1768 1516 1348 891 899 160 0 0 0 0 7